Skip Page Navigation
NASA JPL Caltech
NASA Logo - Jet Propulsion Laboratory + View the NASA Portal
+ Center for Near-Earth Object Studies
JPL Home Earth Solar System Stars & Galaxies Technology
JPL Solar System Dynamics
BODIES ORBITS EPHEMERIDES TOOLS PHYSICAL DATA DISCOVERY FAQ SITE MAP
IMPORTANT: The SSD Announcement email list is now available. Major changes are coming in the near future, including possible hostname and/or URL changes. To be notified of such changes, subscribe to this email list.

Please visit this page for more details.


JPL Small-Body Database Browser
Search: [ help ]  
376693 (2013 QH79)
Classification: Main-belt Asteroid          SPK-ID: 2376693
Ephemeris | Orbit Diagram | Orbital Elements | Mission Design | Physical Parameters | Discovery Circumstances ]

[ show orbit diagram ]
Orbital Elements at Epoch 2459000.5 (2020-May-31.0) TDB
Reference: JPL 16 (heliocentric ecliptic J2000)
 Element Value Uncertainty (1-sigma)   Units 
e .1954657607839613 9.0951e-08  
a 2.456013469057597 2.9636e-08 au
q 1.975946927832597 2.1263e-07 au
i .4793688210675733 8.9131e-06 deg
node 332.5592042532777 0.00062954 deg
peri 3.136291617886049 0.00062971 deg
M 272.3266393443783 1.7048e-05 deg
tp 2459342.881031848469
(2021-May-08.38103185)
7.0665e-05 TDB
period 1405.867991642286
3.85
2.5446e-05
6.967e-08
d
yr
n .2560695613956332 4.6349e-09 deg/d
Q 2.936080010282596 3.5429e-08 au
  Orbit Determination Parameters
   # obs. used (total)      166  
   data-arc span      4404 days (12.06 yr)  
   first obs. used      2006-12-13  
   last obs. used      2019-01-03  
   planetary ephem.      DE431  
   SB-pert. ephem.      SB431-N16  
   condition code      0  
   norm. resid. RMS      .64496  
   source      ORB  
   producer      Otto Matic  
   solution date      2020-Feb-26 02:47:51  

Additional Information
 Earth MOID = .966266 au 
 Jupiter MOID = 2.4405 au 
 T_jup = 3.466 
[ show covariance matrix ]

Ephemeris | Orbit Diagram | Orbital Elements | Mission Design | Physical Parameters | Discovery Circumstances ]

Physical Parameter Table
Parameter Symbol Value Units Sigma Reference Notes
absolute magnitude H 17.2   n/a MPO423382  

376693 (2013 QH79)          Discovered 2009-Jul-21 by OAM at La Sagra
Reference: Last Updated: 2013-10-21
Ephemeris | Orbit Diagram | Orbital Elements | Mission Design | Physical Parameters | Discovery Circumstances ]
ABOUT SSD CREDITS/AWARDS PRIVACY/COPYRIGHT GLOSSARY LINKS
FirstGov 2020-Apr-10 08:24 UT
(server date/time)  
NASA Home Page
Site Manager:   Ryan S. Park
Webmaster  Alan B. Chamberlin